Location: Caltech
(34.1382°N, 118.1253°W)
Time: 03:58:13
(UTC-07:00)

Cosmos 1606 - Visible Passes

Search period start: 25 April 2015 00:00
Search period end: 05 May 2015 00:00
Orbit: 512 x 541 km, 82.5° (Epoch: 24 April)

Date Brightness Start Highest point End Pass type
(mag) Time Alt. Az. Time Alt. Az. Time Alt. Az.
25 Apr 6.0 22:59:28 11° NNW 22:59:28 11° NNW 22:59:36 10° NNW visible
26 Apr 5.7 22:47:35 14° NNW 22:47:35 14° NNW 22:48:11 10° NNW visible
27 Apr 5.4 22:35:37 18° NNW 22:35:37 18° NNW 22:36:44 10° N visible
28 Apr 5.0 22:23:36 23° NNW 22:23:36 23° NNW 22:25:17 10° N visible
29 Apr 4.4 22:11:31 31° NNW 22:11:31 31° NNW 22:13:47 10° N visible
30 Apr 3.7 21:59:22 44° NW 21:59:22 44° NW 22:02:16 10° N visible
01 May 3.0 21:47:06 63° WNW 21:47:06 63° WNW 21:50:45 10° N visible
02 May 2.8 21:34:46 57° SW 21:35:24 72° W 21:39:13 10° N visible
03 May 2.6 21:22:17 35° SSW 21:23:50 82° W 21:27:39 10° N visible
04 May 2.6 21:09:40 20° S 21:12:15 88° E 21:16:04 10° N visible
